SBI3235 UUDD-UTAA

Flight info

Callsign SBI3235
Flight time 3h 19m
Altitude 33000
Route TOGMO M56 NIBIR M56 VEVIK Z102 GARDU DCT TIROM A87 MAMED
Aircraft A21N/M-SDE2E3FGHIRWXY/LB1

Departure

Time 2026-04-25 15:30
Airport Domodedovo International Airport (UUDD)

Arrival

Time 2026-04-25 18:49
Airport Ashgabat International Airport (UTAA)
Time Latitude Longitude Altitude Speed Heading
2026-04-25 14:42 55.41111 37.89852 581 ft 0 kts 55°
2026-04-25 14:48 55.41111 37.89853 577 ft 0 kts 55°
2026-04-25 15:17 55.41108 37.89846 581 ft 4 kts 58°
2026-04-25 15:18 55.41099 37.89804 583 ft 4 kts 91°
2026-04-25 15:18 55.41125 37.89733 581 ft 2 kts 145°
2026-04-25 15:18 55.41127 37.89731 581 ft 1 kts 145°
2026-04-25 15:20 55.41126 37.89732 581 ft 1 kts 145°
2026-04-25 15:20 55.41111 37.89750 585 ft 4 kts 145°
2026-04-25 15:21 55.41079 37.89790 579 ft 7 kts 144°
2026-04-25 15:21 55.41036 37.89844 579 ft 8 kts 144°
2026-04-25 15:21 55.40997 37.89862 574 ft 6 kts 202°
2026-04-25 15:21 55.40973 37.89820 575 ft 9 kts 236°
2026-04-25 15:22 55.40934 37.89716 578 ft 12 kts 236°
2026-04-25 15:22 55.40887 37.89593 575 ft 10 kts 235°
2026-04-25 15:22 55.40837 37.89498 578 ft 11 kts 228°
2026-04-25 15:22 55.40791 37.89384 576 ft 12 kts 236°
2026-04-25 15:23 55.40744 37.89263 576 ft 11 kts 236°
2026-04-25 15:23 55.40721 37.89245 578 ft 4 kts 158°
2026-04-25 15:23 55.40689 37.89283 574 ft 7 kts 145°
2026-04-25 15:23 55.40635 37.89349 578 ft 11 kts 145°
2026-04-25 15:24 55.40566 37.89432 574 ft 12 kts 146°
2026-04-25 15:24 55.40501 37.89511 572 ft 12 kts 146°
2026-04-25 15:24 55.40432 37.89594 568 ft 12 kts 146°
2026-04-25 15:24 55.40387 37.89648 567 ft 11 kts 145°
2026-04-25 15:25 55.40303 37.89749 565 ft 11 kts 145°
2026-04-25 15:25 55.40237 37.89829 566 ft 12 kts 145°
2026-04-25 15:25 55.40167 37.89913 562 ft 13 kts 146°
2026-04-25 15:25 55.40091 37.90003 560 ft 13 kts 146°
2026-04-25 15:26 55.40013 37.90096 558 ft 14 kts 146°
2026-04-25 15:26 55.39933 37.90192 556 ft 14 kts 146°
2026-04-25 15:26 55.39851 37.90291 555 ft 15 kts 146°
2026-04-25 15:26 55.39768 37.90391 556 ft 15 kts 146°
2026-04-25 15:27 55.39683 37.90493 553 ft 14 kts 146°
2026-04-25 15:27 55.39630 37.90541 550 ft 5 kts 178°
2026-04-25 15:27 55.39575 37.90461 554 ft 6 kts 242°
2026-04-25 15:28 55.39554 37.90394 549 ft 7 kts 240°
2026-04-25 15:28 55.39551 37.90305 548 ft 8 kts 290°
2026-04-25 15:28 55.39575 37.90256 548 ft 2 kts 327°
2026-04-25 15:28 55.39576 37.90255 548 ft 0 kts 327°
2026-04-25 15:29 55.39673 37.90143 550 ft 48 kts 327°
2026-04-25 15:29 55.40118 37.89603 564 ft 109 kts 326°
2026-04-25 15:29 55.40922 37.88643 582 ft 165 kts 326°
2026-04-25 15:29 55.41947 37.87428 937 ft 182 kts 324°
2026-04-25 15:30 55.42944 37.86096 1720 ft 178 kts 308°
2026-04-25 15:30 55.43572 37.84222 2252 ft 180 kts 301°
2026-04-25 15:30 55.44369 37.82437 2688 ft 191 kts 309°
2026-04-25 15:30 55.45299 37.80644 3106 ft 204 kts 308°
2026-04-25 15:31 55.45992 37.78422 3492 ft 214 kts 280°
2026-04-25 15:31 55.45903 37.75765 3868 ft 226 kts 248°
2026-04-25 15:31 55.45095 37.73353 4449 ft 232 kts 234°
2026-04-25 15:31 55.44140 37.71059 5127 ft 233 kts 235°
2026-04-25 15:32 55.43073 37.68911 5811 ft 236 kts 220°
2026-04-25 15:32 55.41555 37.67747 6416 ft 247 kts 190°
2026-04-25 15:32 55.39814 37.68023 6967 ft 259 kts 169°
2026-04-25 15:33 55.36555 37.71470 7886 ft 286 kts 143°
2026-04-25 15:33 55.35013 37.73715 8514 ft 290 kts 143°
2026-04-25 15:33 55.33439 37.75968 9143 ft 293 kts 144°
2026-04-25 15:33 55.31835 37.78218 9764 ft 297 kts 144°
2026-04-25 15:34 55.30201 37.80488 10239 ft 304 kts 144°
2026-04-25 15:34 55.28495 37.82844 10537 ft 319 kts 144°
2026-04-25 15:34 55.26736 37.85255 10775 ft 335 kts 144°
2026-04-25 15:34 55.25468 37.86991 10936 ft 345 kts 144°
2026-04-25 15:35 55.20820 37.93374 11457 ft 381 kts 144°
2026-04-25 15:35 55.18692 37.96284 11703 ft 394 kts 144°
2026-04-25 15:35 55.16520 37.99254 12192 ft 399 kts 144°
2026-04-25 15:36 55.12104 38.05266 13252 ft 405 kts 144°
2026-04-25 15:36 55.09874 38.08294 13752 ft 408 kts 144°
2026-04-25 15:36 55.07623 38.11339 14193 ft 411 kts 144°
2026-04-25 15:37 55.05354 38.14408 14633 ft 414 kts 145°
2026-04-25 15:37 55.03073 38.17484 15098 ft 417 kts 145°
2026-04-25 15:37 55.00768 38.20593 15572 ft 420 kts 145°
2026-04-25 15:37 54.98451 38.23712 16018 ft 423 kts 145°
2026-04-25 15:38 54.96107 38.26863 16464 ft 427 kts 145°
2026-04-25 15:38 54.93746 38.30033 16949 ft 431 kts 145°
2026-04-25 15:38 54.91361 38.33226 17397 ft 434 kts 146°
2026-04-25 15:38 54.88959 38.36445 17859 ft 437 kts 146°
2026-04-25 15:39 54.86543 38.39676 18269 ft 440 kts 146°
2026-04-25 15:39 54.84108 38.42929 18681 ft 443 kts 146°
2026-04-25 15:39 54.81656 38.46201 19086 ft 446 kts 146°
2026-04-25 15:39 54.79195 38.49477 19484 ft 448 kts 146°
2026-04-25 15:40 54.76717 38.52775 19882 ft 451 kts 146°
2026-04-25 15:40 54.75065 38.54973 20114 ft 453 kts 145°
2026-04-25 15:40 54.71732 38.59387 20579 ft 458 kts 146°
2026-04-25 15:40 54.69197 38.62734 20964 ft 460 kts 146°
2026-04-25 15:41 54.66646 38.66095 21326 ft 462 kts 146°
2026-04-25 15:41 54.64088 38.69464 21702 ft 464 kts 146°
2026-04-25 15:41 54.61518 38.72851 22061 ft 466 kts 146°
2026-04-25 15:41 54.58937 38.76252 22403 ft 468 kts 146°
2026-04-25 15:42 54.56339 38.79659 22764 ft 470 kts 146°
2026-04-25 15:42 54.53729 38.83085 23092 ft 473 kts 146°
2026-04-25 15:42 54.51106 38.86522 23379 ft 475 kts 146°
2026-04-25 15:42 54.48465 38.89974 23677 ft 478 kts 146°
2026-04-25 15:43 54.45814 38.93429 23986 ft 479 kts 146°
2026-04-25 15:43 54.43150 38.96892 24296 ft 481 kts 146°
2026-04-25 15:43 54.40577 39.00583 24606 ft 486 kts 137°
2026-04-25 15:43 54.38427 39.05086 24892 ft 491 kts 124°
2026-04-25 15:44 54.36863 39.10310 25175 ft 494 kts 114°
2026-04-25 15:44 54.35571 39.15786 25460 ft 496 kts 112°
2026-04-25 15:44 54.34293 39.21291 25759 ft 497 kts 112°
2026-04-25 15:44 54.32998 39.26779 26137 ft 496 kts 113°
2026-04-25 15:45 54.31687 39.32240 26511 ft 495 kts 113°
2026-04-25 15:45 54.30365 39.37679 26879 ft 494 kts 113°
2026-04-25 15:45 54.29045 39.43106 27238 ft 493 kts 114°
2026-04-25 15:45 54.28170 39.46684 27484 ft 493 kts 114°
2026-04-25 15:46 54.26396 39.53916 27968 ft 492 kts 114°
2026-04-25 15:46 54.25076 39.59304 28339 ft 491 kts 114°
2026-04-25 15:46 54.23759 39.64684 28671 ft 490 kts 114°
2026-04-25 15:46 54.22436 39.70047 29007 ft 489 kts 114°
2026-04-25 15:47 54.21118 39.75388 29329 ft 489 kts 114°
2026-04-25 15:47 54.19796 39.80743 29668 ft 488 kts 114°
2026-04-25 15:47 54.18478 39.86064 29943 ft 487 kts 114°
2026-04-25 15:47 54.17154 39.91384 30175 ft 487 kts 114°
2026-04-25 15:48 54.15841 39.96625 30407 ft 487 kts 115°
2026-04-25 15:48 54.14514 40.01937 30635 ft 487 kts 114°
2026-04-25 15:48 54.13191 40.07238 30759 ft 485 kts 114°
2026-04-25 15:48 54.11891 40.12546 30743 ft 485 kts 111°
2026-04-25 15:49 54.09905 40.23558 30718 ft 488 kts 107°
2026-04-25 15:49 54.07976 40.34738 30720 ft 497 kts 107°
2026-04-25 15:50 54.06006 40.46052 30728 ft 499 kts 107°
2026-04-25 15:50 54.04021 40.57361 30717 ft 499 kts 107°
2026-04-25 15:51 54.02358 40.66752 30730 ft 498 kts 107°
2026-04-25 15:51 54.00007 40.79930 30730 ft 498 kts 107°
2026-04-25 15:52 53.97991 40.91195 30731 ft 498 kts 107°
2026-04-25 15:52 53.95971 41.02452 30730 ft 498 kts 107°
2026-04-25 15:53 53.94095 41.13761 30736 ft 498 kts 106°
2026-04-25 15:53 53.92235 41.25097 30722 ft 498 kts 106°
2026-04-25 15:54 53.90365 41.36403 30737 ft 498 kts 106°
2026-04-25 15:54 53.88488 41.47714 30764 ft 498 kts 106°
2026-04-25 15:55 53.86593 41.59035 30745 ft 500 kts 106°
2026-04-25 15:55 53.84690 41.70273 30749 ft 499 kts 106°
2026-04-25 15:56 53.82760 41.81654 30745 ft 499 kts 107°
2026-04-25 15:56 53.80827 41.92852 30754 ft 500 kts 107°
2026-04-25 15:57 53.78883 42.04160 30754 ft 502 kts 107°
2026-04-25 15:57 53.76910 42.15481 30757 ft 502 kts 107°
2026-04-25 15:58 53.74926 42.26787 30755 ft 502 kts 107°
2026-04-25 15:58 53.72941 42.38092 30755 ft 502 kts 107°
2026-04-25 15:59 53.70948 42.49395 30763 ft 502 kts 107°
2026-04-25 15:59 53.68933 42.60666 30763 ft 502 kts 107°
2026-04-25 16:00 53.67595 42.68227 30764 ft 502 kts 105°
2026-04-25 16:00 53.65211 42.83384 30756 ft 503 kts 105°
2026-04-25 16:01 53.63418 42.94784 30769 ft 503 kts 105°
2026-04-25 16:01 53.61606 43.06170 30766 ft 503 kts 105°
2026-04-25 16:02 53.59792 43.17537 30763 ft 503 kts 105°
2026-04-25 16:02 53.57960 43.28906 30764 ft 503 kts 105°
2026-04-25 16:03 53.56122 43.40269 30764 ft 504 kts 105°
2026-04-25 16:03 53.54265 43.51637 30770 ft 504 kts 105°
2026-04-25 16:04 53.52401 43.62999 30772 ft 504 kts 106°
2026-04-25 16:04 53.50518 43.74349 30774 ft 504 kts 106°
2026-04-25 16:05 53.48634 43.85694 30775 ft 504 kts 106°
2026-04-25 16:06 53.45777 44.02706 30772 ft 506 kts 106°
2026-04-25 16:06 53.43847 44.14075 30771 ft 507 kts 106°
2026-04-25 16:07 53.41919 44.25359 30767 ft 507 kts 106°
2026-04-25 16:07 53.39974 44.36710 30771 ft 506 kts 106°
2026-04-25 16:08 53.38020 44.48051 30761 ft 507 kts 106°
2026-04-25 16:08 53.36372 44.57539 30764 ft 507 kts 106°
2026-04-25 16:09 53.34077 44.70698 30769 ft 507 kts 107°
2026-04-25 16:09 53.32081 44.82008 30768 ft 507 kts 107°
2026-04-25 16:10 53.30407 44.91473 30767 ft 507 kts 107°
2026-04-25 16:10 53.28394 45.02765 30767 ft 507 kts 107°
2026-04-25 16:11 53.26137 45.13919 30781 ft 508 kts 110°
2026-04-25 16:11 53.23748 45.24945 30769 ft 509 kts 110°
2026-04-25 16:12 53.21332 45.36029 30771 ft 509 kts 110°
2026-04-25 16:12 53.18885 45.47095 30759 ft 508 kts 110°
2026-04-25 16:13 53.16453 45.58158 30764 ft 508 kts 110°
2026-04-25 16:13 53.14014 45.69221 30768 ft 508 kts 110°
2026-04-25 16:14 53.11558 45.80245 30767 ft 508 kts 110°
2026-04-25 16:14 53.09105 45.91278 30769 ft 508 kts 110°
2026-04-25 16:15 53.06654 46.02310 30765 ft 509 kts 110°
2026-04-25 16:15 53.04194 46.13349 30773 ft 509 kts 110°
2026-04-25 16:16 53.01717 46.24375 30768 ft 509 kts 110°
2026-04-25 16:16 52.99222 46.35380 30772 ft 509 kts 110°
2026-04-25 16:17 52.96713 46.46379 30780 ft 512 kts 110°
2026-04-25 16:17 52.94199 46.57440 30778 ft 513 kts 110°
2026-04-25 16:18 52.91668 46.68496 30777 ft 513 kts 110°
2026-04-25 16:18 52.89128 46.79528 30778 ft 513 kts 110°
2026-04-25 16:19 52.86587 46.90481 30787 ft 513 kts 110°
2026-04-25 16:19 52.84019 47.01515 30779 ft 515 kts 110°
2026-04-25 16:20 52.80277 47.18145 30782 ft 515 kts 108°
2026-04-25 16:21 52.76713 47.34874 30791 ft 515 kts 108°
2026-04-25 16:21 52.74316 47.46007 30786 ft 514 kts 108°
2026-04-25 16:22 52.71921 47.57112 30790 ft 514 kts 108°
2026-04-25 16:22 52.69511 47.68225 30814 ft 516 kts 108°
2026-04-25 16:23 52.67085 47.79361 30799 ft 516 kts 108°
2026-04-25 16:23 52.64655 47.90494 30803 ft 516 kts 108°
2026-04-25 16:24 52.62208 48.01612 30803 ft 517 kts 108°
2026-04-25 16:24 52.59752 48.12723 30808 ft 517 kts 108°
2026-04-25 16:25 52.57279 48.23816 30816 ft 517 kts 108°
2026-04-25 16:25 52.54804 48.34902 30814 ft 517 kts 108°
2026-04-25 16:26 52.52315 48.45962 30819 ft 517 kts 107°
2026-04-25 16:26 52.49818 48.57017 30819 ft 516 kts 108°
2026-04-25 16:27 52.47316 48.67976 30826 ft 516 kts 108°
2026-04-25 16:27 52.44800 48.79008 30851 ft 517 kts 107°
2026-04-25 16:28 52.42257 48.90048 30831 ft 518 kts 107°
2026-04-25 16:28 52.39712 49.01087 30838 ft 519 kts 107°
2026-04-25 16:29 52.37143 49.12128 30836 ft 519 kts 107°
2026-04-25 16:29 52.34564 49.23156 30834 ft 519 kts 107°
2026-04-25 16:30 52.31980 49.34159 30839 ft 519 kts 108°
2026-04-25 16:30 52.29379 49.45164 30837 ft 519 kts 108°
2026-04-25 16:31 52.26770 49.56149 30833 ft 519 kts 108°
2026-04-25 16:31 52.24156 49.67105 30822 ft 519 kts 108°
2026-04-25 16:32 52.21527 49.78063 30829 ft 519 kts 108°
2026-04-25 16:32 52.18888 49.89018 30857 ft 519 kts 108°
2026-04-25 16:33 52.16242 49.99924 30841 ft 518 kts 108°
2026-04-25 16:33 52.13587 50.10829 30830 ft 518 kts 108°
2026-04-25 16:34 52.10921 50.21728 30827 ft 518 kts 108°
2026-04-25 16:34 52.08248 50.32601 30825 ft 518 kts 109°
2026-04-25 16:35 52.05563 50.43455 30839 ft 517 kts 108°
2026-04-25 16:35 52.02874 50.54284 30825 ft 517 kts 108°
2026-04-25 16:36 52.00172 50.65107 30830 ft 517 kts 108°
2026-04-25 16:36 51.97450 50.75912 30830 ft 517 kts 109°
2026-04-25 16:37 51.94726 50.86689 30835 ft 516 kts 108°
2026-04-25 16:37 51.91950 50.97414 30831 ft 516 kts 109°
2026-04-25 16:38 51.89139 51.08081 30831 ft 514 kts 110°
2026-04-25 16:38 51.86330 51.18728 30827 ft 514 kts 110°
2026-04-25 16:39 51.83513 51.29366 30824 ft 515 kts 110°
2026-04-25 16:39 51.80695 51.39949 30837 ft 512 kts 110°
2026-04-25 16:40 51.77877 51.50522 30841 ft 512 kts 110°
2026-04-25 16:40 51.75062 51.61008 30842 ft 513 kts 110°
2026-04-25 16:41 51.72214 51.71553 30840 ft 513 kts 110°
2026-04-25 16:41 51.67332 51.86832 30845 ft 516 kts 128°
2026-04-25 16:42 51.64818 51.90954 30844 ft 517 kts 140°
2026-04-25 16:42 51.61851 51.94210 30852 ft 516 kts 151°
2026-04-25 16:42 51.55524 51.99688 30858 ft 516 kts 153°
2026-04-25 16:43 51.49212 52.05151 30863 ft 512 kts 153°
2026-04-25 16:43 51.42972 52.10612 30864 ft 511 kts 153°
2026-04-25 16:44 51.36730 52.16066 30866 ft 511 kts 152°
2026-04-25 16:44 51.30481 52.21500 30875 ft 511 kts 153°
2026-04-25 16:45 51.24269 52.26890 30880 ft 505 kts 153°
2026-04-25 16:45 51.18093 52.32224 30880 ft 505 kts 153°
2026-04-25 16:46 51.11907 52.37560 30889 ft 506 kts 153°
2026-04-25 16:46 51.07763 52.41125 30889 ft 505 kts 153°
2026-04-25 16:47 50.99594 52.48129 30896 ft 500 kts 154°
2026-04-25 16:47 50.93435 52.53390 30886 ft 506 kts 153°
2026-04-25 16:48 50.87024 52.57913 30898 ft 503 kts 168°
2026-04-25 16:48 50.83605 52.58820 30901 ft 496 kts 180°
2026-04-25 16:48 50.80191 52.58786 30914 ft 487 kts 186°
2026-04-25 16:49 50.73425 52.58161 30920 ft 487 kts 187°
2026-04-25 16:49 50.66654 52.57594 30923 ft 487 kts 187°
2026-04-25 16:50 50.59885 52.57071 30922 ft 488 kts 186°
2026-04-25 16:50 50.53098 52.56552 30907 ft 490 kts 187°
2026-04-25 16:51 50.46310 52.56026 30920 ft 488 kts 187°
2026-04-25 16:51 50.41811 52.55680 30930 ft 488 kts 187°
2026-04-25 16:52 50.32828 52.54989 30927 ft 476 kts 187°
2026-04-25 16:52 50.26245 52.54485 30933 ft 473 kts 187°
2026-04-25 16:53 50.16355 52.53720 30930 ft 480 kts 187°
2026-04-25 16:54 50.09671 52.53213 30943 ft 482 kts 187°
2026-04-25 16:54 50.02971 52.52710 30950 ft 482 kts 187°
2026-04-25 16:55 49.96275 52.52206 30953 ft 480 kts 187°
2026-04-25 16:55 49.89665 52.51708 30958 ft 475 kts 187°
2026-04-25 16:56 49.83054 52.51205 30940 ft 479 kts 187°
2026-04-25 16:56 49.76363 52.50704 30962 ft 483 kts 187°
2026-04-25 16:57 49.70785 52.50292 30977 ft 483 kts 187°
2026-04-25 16:57 49.64095 52.49793 30988 ft 476 kts 187°
2026-04-25 16:58 49.57452 52.49295 30988 ft 475 kts 187°
2026-04-25 16:58 49.50882 52.48807 30989 ft 476 kts 187°
2026-04-25 16:59 49.44207 52.48313 30986 ft 483 kts 187°
2026-04-25 16:59 49.37486 52.47821 31003 ft 482 kts 187°
2026-04-25 17:00 49.30850 52.47336 31008 ft 477 kts 187°
2026-04-25 17:00 49.24214 52.46848 31015 ft 477 kts 187°
2026-04-25 17:01 49.17587 52.46359 31024 ft 477 kts 187°
2026-04-25 17:01 49.10908 52.45863 31007 ft 485 kts 187°
2026-04-25 17:02 49.04222 52.45382 31033 ft 478 kts 187°
2026-04-25 17:02 48.97599 52.45153 31035 ft 482 kts 181°
2026-04-25 17:03 48.90894 52.45794 31035 ft 483 kts 180°
2026-04-25 17:03 48.84198 52.46456 31039 ft 482 kts 180°
2026-04-25 17:04 48.77550 52.47102 31009 ft 478 kts 181°
2026-04-25 17:04 48.70845 52.47745 31036 ft 484 kts 181°
2026-04-25 17:05 48.64113 52.48391 31034 ft 485 kts 181°
2026-04-25 17:05 48.54029 52.49359 31037 ft 480 kts 181°
2026-04-25 17:06 48.47382 52.49993 31045 ft 479 kts 181°
2026-04-25 17:06 48.40728 52.50624 31043 ft 479 kts 181°
2026-04-25 17:07 48.34072 52.51255 31045 ft 479 kts 181°
2026-04-25 17:07 48.27441 52.51886 31045 ft 472 kts 181°
2026-04-25 17:08 48.20887 52.52502 31042 ft 473 kts 181°
2026-04-25 17:08 48.14320 52.53119 31045 ft 473 kts 181°
2026-04-25 17:09 48.07754 52.53736 31046 ft 473 kts 181°
2026-04-25 17:09 48.01164 52.54352 31032 ft 475 kts 181°
2026-04-25 17:10 47.94554 52.54971 31062 ft 476 kts 181°
2026-04-25 17:10 47.87937 52.55588 31049 ft 476 kts 181°
2026-04-25 17:11 47.81365 52.56200 31054 ft 476 kts 181°
2026-04-25 17:11 47.74791 52.56812 31053 ft 470 kts 181°
2026-04-25 17:12 47.68256 52.57414 31046 ft 471 kts 181°
2026-04-25 17:12 47.61662 52.57670 31048 ft 473 kts 189°
2026-04-25 17:13 47.56171 52.57007 31061 ft 473 kts 191°
2026-04-25 17:13 47.48551 52.56026 31065 ft 473 kts 190°
2026-04-25 17:14 47.41987 52.55200 31067 ft 474 kts 190°
2026-04-25 17:14 47.35420 52.54386 31046 ft 474 kts 191°
2026-04-25 17:15 47.28788 52.53563 31071 ft 480 kts 191°
2026-04-25 17:15 47.22173 52.52754 31070 ft 474 kts 191°
2026-04-25 17:16 47.15590 52.51946 31075 ft 475 kts 191°
2026-04-25 17:16 47.09003 52.51141 31085 ft 475 kts 191°
2026-04-25 17:17 47.02412 52.50332 31054 ft 479 kts 191°
2026-04-25 17:17 46.95763 52.49519 31085 ft 476 kts 191°
2026-04-25 17:18 46.89166 52.48715 31089 ft 476 kts 191°
2026-04-25 17:18 46.82559 52.47908 31093 ft 476 kts 191°
2026-04-25 17:19 46.75951 52.47101 31091 ft 476 kts 191°
2026-04-25 17:19 46.69324 52.46301 31098 ft 478 kts 191°
2026-04-25 17:20 46.66005 52.45904 31352 ft 478 kts 191°
2026-04-25 17:20 46.62697 52.45508 31664 ft 476 kts 191°
2026-04-25 17:20 46.59402 52.45112 31931 ft 476 kts 191°
2026-04-25 17:20 46.56072 52.45009 32179 ft 482 kts 184°
2026-04-25 17:21 46.52720 52.45260 32401 ft 482 kts 183°
2026-04-25 17:21 46.49366 52.45553 32626 ft 482 kts 183°
2026-04-25 17:21 46.46022 52.45845 32859 ft 481 kts 183°
2026-04-25 17:21 46.42686 52.46129 33105 ft 479 kts 183°
2026-04-25 17:22 46.37155 52.46587 33121 ft 482 kts 183°
2026-04-25 17:22 46.29327 52.47229 33122 ft 482 kts 183°
2026-04-25 17:23 46.22670 52.47775 33124 ft 482 kts 184°
2026-04-25 17:23 46.15998 52.48321 33126 ft 478 kts 184°
2026-04-25 17:24 46.09361 52.48862 33131 ft 478 kts 184°
2026-04-25 17:24 46.02708 52.49401 33116 ft 481 kts 184°
2026-04-25 17:25 45.96034 52.49945 33134 ft 480 kts 184°
2026-04-25 17:25 45.89390 52.50485 33140 ft 478 kts 184°
2026-04-25 17:26 45.82744 52.51020 33138 ft 478 kts 184°
2026-04-25 17:26 45.76099 52.51554 33149 ft 478 kts 184°
2026-04-25 17:27 45.69469 52.52088 33104 ft 476 kts 185°
2026-04-25 17:27 45.65045 52.52442 33142 ft 476 kts 185°
2026-04-25 17:28 45.56244 52.53144 33157 ft 476 kts 185°
2026-04-25 17:28 45.49610 52.54326 33139 ft 484 kts 178°
2026-04-25 17:29 45.43001 52.55956 33157 ft 481 kts 178°
2026-04-25 17:29 45.36399 52.57563 33159 ft 481 kts 178°
2026-04-25 17:30 45.29795 52.59155 33160 ft 482 kts 179°
2026-04-25 17:30 45.23193 52.60743 33161 ft 479 kts 179°
2026-04-25 17:31 45.16617 52.62316 33169 ft 479 kts 179°
2026-04-25 17:31 45.10040 52.63885 33165 ft 479 kts 179°
2026-04-25 17:32 45.03462 52.65453 33181 ft 479 kts 179°
2026-04-25 17:32 44.96882 52.67002 33173 ft 479 kts 179°
2026-04-25 17:33 44.90354 52.68543 33173 ft 479 kts 179°
2026-04-25 17:33 44.83774 52.70101 33161 ft 479 kts 179°
2026-04-25 17:34 44.77245 52.71643 33178 ft 476 kts 180°
2026-04-25 17:34 44.70712 52.73179 33188 ft 476 kts 180°
2026-04-25 17:35 44.64181 52.74714 33185 ft 476 kts 180°
2026-04-25 17:35 44.57658 52.76245 33161 ft 474 kts 180°
2026-04-25 17:36 44.51171 52.77764 33192 ft 472 kts 180°
2026-04-25 17:36 44.44687 52.79276 33193 ft 472 kts 180°
2026-04-25 17:37 44.38206 52.80786 33194 ft 471 kts 180°
2026-04-25 17:37 44.31761 52.82284 33199 ft 469 kts 180°
2026-04-25 17:38 44.27497 52.83270 33200 ft 469 kts 180°
2026-04-25 17:38 44.18895 52.85262 33191 ft 466 kts 180°
2026-04-25 17:39 44.12525 52.86733 33198 ft 462 kts 181°
2026-04-25 17:39 44.06180 52.88191 33208 ft 462 kts 181°
2026-04-25 17:40 43.99835 52.89648 33212 ft 462 kts 181°
2026-04-25 17:40 43.93502 52.91102 33200 ft 459 kts 181°
2026-04-25 17:41 43.87205 52.92543 33195 ft 458 kts 181°
2026-04-25 17:41 43.80912 52.93978 33209 ft 458 kts 181°
2026-04-25 17:42 43.74628 52.95407 33195 ft 457 kts 181°
2026-04-25 17:42 43.68409 52.96823 33212 ft 456 kts 181°
2026-04-25 17:43 43.62150 52.98242 33219 ft 456 kts 181°
2026-04-25 17:43 43.55892 52.99656 33224 ft 456 kts 181°
2026-04-25 17:44 43.49659 53.01067 33204 ft 452 kts 181°
2026-04-25 17:44 43.43454 53.02464 33222 ft 452 kts 181°
2026-04-25 17:45 43.39295 53.03399 33218 ft 452 kts 181°
2026-04-25 17:45 43.32040 53.05030 33205 ft 450 kts 181°
2026-04-25 17:46 43.25878 53.06412 33225 ft 448 kts 181°
2026-04-25 17:46 43.19757 53.07779 33227 ft 448 kts 181°
2026-04-25 17:47 43.13557 53.09162 33184 ft 448 kts 180°
2026-04-25 17:47 43.07424 53.10529 33222 ft 446 kts 180°
2026-04-25 17:48 42.98264 53.12564 33229 ft 446 kts 180°
2026-04-25 17:49 42.92131 53.13922 33224 ft 447 kts 180°
2026-04-25 17:49 42.85995 53.15279 33230 ft 447 kts 180°
2026-04-25 17:50 42.79847 53.16636 33227 ft 448 kts 180°
2026-04-25 17:50 42.73688 53.17994 33232 ft 448 kts 180°
2026-04-25 17:51 42.67542 53.19347 33225 ft 448 kts 180°
2026-04-25 17:51 42.61392 53.20694 33232 ft 448 kts 180°
2026-04-25 17:52 42.55241 53.22040 33242 ft 448 kts 180°
2026-04-25 17:52 42.49102 53.23385 33205 ft 444 kts 180°
2026-04-25 17:53 42.43008 53.24713 33231 ft 443 kts 180°
2026-04-25 17:53 42.36916 53.26037 33227 ft 443 kts 180°
2026-04-25 17:54 42.30826 53.27360 33208 ft 442 kts 180°
2026-04-25 17:54 42.24825 53.29435 33219 ft 461 kts 165°
2026-04-25 17:54 42.22027 53.31688 33223 ft 478 kts 151°
2026-04-25 17:55 42.19523 53.34717 33237 ft 487 kts 144°
2026-04-25 17:55 42.14715 53.41146 33207 ft 487 kts 144°
2026-04-25 17:56 42.09851 53.47505 33218 ft 487 kts 144°
2026-04-25 17:56 42.04960 53.53821 33216 ft 487 kts 144°
2026-04-25 17:57 42.00065 53.60127 33184 ft 487 kts 145°
2026-04-25 17:57 41.95166 53.66431 33205 ft 488 kts 145°
2026-04-25 17:58 41.90263 53.72729 33206 ft 488 kts 145°
2026-04-25 17:58 41.85363 53.79009 33179 ft 486 kts 145°
2026-04-25 17:59 41.80474 53.85254 33198 ft 485 kts 145°
2026-04-25 17:59 41.75618 53.91454 33197 ft 485 kts 145°
2026-04-25 18:00 41.70726 53.97684 33165 ft 484 kts 145°
2026-04-25 18:00 41.65870 54.03853 33190 ft 482 kts 145°
2026-04-25 18:01 41.61008 54.10011 33192 ft 482 kts 145°
2026-04-25 18:01 41.56140 54.16167 33160 ft 480 kts 146°
2026-04-25 18:02 41.51300 54.22275 33179 ft 479 kts 146°
2026-04-25 18:02 41.46456 54.28369 33183 ft 479 kts 146°
2026-04-25 18:03 41.41613 54.34453 33176 ft 477 kts 146°
2026-04-25 18:03 41.36780 54.40512 33173 ft 477 kts 146°
2026-04-25 18:04 41.31947 54.46556 33172 ft 477 kts 146°
2026-04-25 18:04 41.27109 54.52595 33177 ft 477 kts 146°
2026-04-25 18:05 41.22268 54.58623 33183 ft 477 kts 146°
2026-04-25 18:05 41.17426 54.64640 33181 ft 477 kts 146°
2026-04-25 18:06 41.12627 54.70593 33171 ft 474 kts 146°
2026-04-25 18:06 41.07808 54.76557 33176 ft 474 kts 146°
2026-04-25 18:07 41.02984 54.82513 33174 ft 474 kts 146°
2026-04-25 18:07 40.98183 54.88435 33161 ft 469 kts 145°
2026-04-25 18:08 40.93403 54.94306 33180 ft 469 kts 145°
2026-04-25 18:08 40.88620 55.00172 33180 ft 469 kts 145°
2026-04-25 18:09 40.83848 55.06015 33170 ft 466 kts 145°
2026-04-25 18:09 40.79083 55.11833 33175 ft 467 kts 146°
2026-04-25 18:10 40.74312 55.17649 33173 ft 467 kts 146°
2026-04-25 18:10 40.69556 55.23436 33171 ft 464 kts 145°
2026-04-25 18:11 40.64802 55.29207 33176 ft 465 kts 145°
2026-04-25 18:11 40.60047 55.34971 33171 ft 465 kts 145°
2026-04-25 18:12 40.55291 55.40721 33166 ft 464 kts 145°
2026-04-25 18:12 40.50532 55.46461 33167 ft 464 kts 145°
2026-04-25 18:13 40.45773 55.52194 33162 ft 464 kts 145°
2026-04-25 18:13 40.41027 55.57900 33155 ft 462 kts 144°
2026-04-25 18:14 40.33916 55.66422 33163 ft 462 kts 145°
2026-04-25 18:14 40.29173 55.72098 33145 ft 459 kts 145°
2026-04-25 18:15 40.24452 55.77749 33150 ft 460 kts 144°
2026-04-25 18:15 40.19740 55.83419 33149 ft 460 kts 145°
2026-04-25 18:16 40.15040 55.89061 33130 ft 457 kts 145°
2026-04-25 18:17 40.08003 55.97480 33137 ft 457 kts 145°
2026-04-25 18:17 40.03310 56.03085 33116 ft 457 kts 145°
2026-04-25 18:18 39.98625 56.08662 33114 ft 456 kts 145°
2026-04-25 18:18 39.93935 56.14239 33122 ft 456 kts 145°
2026-04-25 18:19 39.89238 56.19814 33116 ft 457 kts 145°
2026-04-25 18:19 39.84535 56.25378 33113 ft 456 kts 146°
2026-04-25 18:20 39.79844 56.30860 33124 ft 456 kts 146°
2026-04-25 18:20 39.75124 56.36370 33092 ft 455 kts 146°
2026-04-25 18:21 39.70420 56.41857 33103 ft 455 kts 146°
2026-04-25 18:21 39.65698 56.47352 33105 ft 455 kts 146°
2026-04-25 18:22 39.60980 56.52837 33084 ft 455 kts 146°
2026-04-25 18:22 39.56267 56.58299 33106 ft 455 kts 146°
2026-04-25 18:23 39.51540 56.63769 33093 ft 456 kts 146°
2026-04-25 18:23 39.46809 56.69236 33075 ft 456 kts 146°
2026-04-25 18:24 39.42072 56.74695 33090 ft 456 kts 146°
2026-04-25 18:24 39.37332 56.80147 33081 ft 456 kts 146°
2026-04-25 18:25 39.32613 56.85588 33070 ft 454 kts 146°
2026-04-25 18:25 39.27899 56.91041 33074 ft 455 kts 146°
2026-04-25 18:26 39.23179 56.96487 33063 ft 455 kts 146°
2026-04-25 18:26 39.18470 57.01911 33060 ft 452 kts 146°
2026-04-25 18:27 39.13773 57.07306 33056 ft 452 kts 146°
2026-04-25 18:27 39.09069 57.12692 33015 ft 452 kts 146°
2026-04-25 18:27 39.06728 57.15376 32647 ft 451 kts 145°
2026-04-25 18:28 39.04378 57.18058 32343 ft 452 kts 145°
2026-04-25 18:28 39.02021 57.20749 32074 ft 454 kts 145°
2026-04-25 18:28 38.99690 57.23414 31845 ft 455 kts 144°
2026-04-25 18:29 38.94944 57.28823 31331 ft 457 kts 144°
2026-04-25 18:29 38.92568 57.31531 31061 ft 459 kts 144°
2026-04-25 18:30 38.86962 57.37900 30205 ft 459 kts 143°
2026-04-25 18:30 38.86373 57.38568 30048 ft 459 kts 144°
2026-04-25 18:30 38.83976 57.41292 29101 ft 458 kts 143°
2026-04-25 18:30 38.81579 57.44002 28199 ft 460 kts 143°
2026-04-25 18:31 38.79179 57.46718 27362 ft 460 kts 143°
2026-04-25 18:31 38.76784 57.49435 26582 ft 459 kts 142°
2026-04-25 18:31 38.74395 57.52140 25876 ft 457 kts 142°
2026-04-25 18:31 38.72814 57.53921 25413 ft 456 kts 142°
2026-04-25 18:32 38.69646 57.57497 24499 ft 453 kts 142°
2026-04-25 18:32 38.67289 57.60156 23806 ft 451 kts 142°
2026-04-25 18:32 38.65736 57.61904 23314 ft 449 kts 142°
2026-04-25 18:32 38.63395 57.64539 22530 ft 447 kts 141°
2026-04-25 18:33 38.61134 57.67257 21782 ft 446 kts 136°
2026-04-25 18:33 38.59029 57.70158 21049 ft 444 kts 135°
2026-04-25 18:33 38.56954 57.73056 20347 ft 440 kts 135°
2026-04-25 18:33 38.54901 57.75934 19678 ft 436 kts 135°
2026-04-25 18:34 38.52863 57.78786 19054 ft 433 kts 135°
2026-04-25 18:34 38.50838 57.81613 18448 ft 430 kts 135°
2026-04-25 18:34 38.48824 57.84425 17777 ft 428 kts 136°
2026-04-25 18:34 38.46815 57.87214 17140 ft 426 kts 136°
2026-04-25 18:35 38.44812 57.89984 16526 ft 424 kts 136°
2026-04-25 18:35 38.42820 57.92751 15899 ft 423 kts 135°
2026-04-25 18:35 38.40835 57.95507 15311 ft 421 kts 135°
2026-04-25 18:35 38.38856 57.98252 14733 ft 420 kts 135°
2026-04-25 18:36 38.36881 58.00987 14122 ft 419 kts 135°
2026-04-25 18:36 38.34921 58.03698 13497 ft 413 kts 135°
2026-04-25 18:36 38.32992 58.06365 12909 ft 406 kts 135°
2026-04-25 18:36 38.31096 58.08986 12329 ft 399 kts 135°
2026-04-25 18:37 38.29229 58.11560 11774 ft 392 kts 135°
2026-04-25 18:37 38.27397 58.14079 11399 ft 381 kts 135°
2026-04-25 18:37 38.25637 58.16502 11028 ft 364 kts 135°
2026-04-25 18:37 38.23982 58.18792 10607 ft 349 kts 135°
2026-04-25 18:38 38.22370 58.21012 10196 ft 335 kts 135°
2026-04-25 18:38 38.20832 58.23129 9976 ft 317 kts 135°
2026-04-25 18:38 38.19376 58.25134 9795 ft 301 kts 136°
2026-04-25 18:38 38.17972 58.27066 9508 ft 295 kts 135°
2026-04-25 18:39 38.16580 58.28975 9174 ft 294 kts 135°
2026-04-25 18:39 38.15191 58.30877 8827 ft 293 kts 135°
2026-04-25 18:39 38.13804 58.32772 8477 ft 293 kts 135°
2026-04-25 18:39 38.12415 58.34673 8121 ft 294 kts 134°
2026-04-25 18:40 38.11025 58.36576 7772 ft 294 kts 134°
2026-04-25 18:40 38.09635 58.38480 7420 ft 294 kts 134°
2026-04-25 18:40 38.08247 58.40377 7045 ft 291 kts 134°
2026-04-25 18:40 38.06875 58.42248 6635 ft 288 kts 133°
2026-04-25 18:41 38.05518 58.44105 6146 ft 286 kts 133°
2026-04-25 18:41 38.04167 58.45949 5627 ft 285 kts 133°
2026-04-25 18:41 38.02816 58.47786 5103 ft 285 kts 133°
2026-04-25 18:41 38.01470 58.49617 4596 ft 284 kts 132°
2026-04-25 18:42 38.00129 58.51446 4271 ft 280 kts 132°
2026-04-25 18:42 37.99258 58.52636 4117 ft 275 kts 132°
2026-04-25 18:42 37.97550 58.54962 3768 ft 263 kts 132°
2026-04-25 18:42 37.96329 58.56625 3481 ft 253 kts 131°
2026-04-25 18:43 37.95146 58.58231 3258 ft 245 kts 132°
2026-04-25 18:43 37.93893 58.59569 3104 ft 228 kts 152°
2026-04-25 18:43 37.92426 58.59981 2911 ft 211 kts 190°
2026-04-25 18:43 37.91042 58.59502 2599 ft 203 kts 211°
2026-04-25 18:44 37.90016 58.58383 2448 ft 190 kts 243°
2026-04-25 18:44 37.89563 58.56884 2441 ft 179 kts 268°
2026-04-25 18:44 37.89647 58.55356 2452 ft 172 kts 288°
2026-04-25 18:44 37.90039 58.53936 2466 ft 170 kts 297°
2026-04-25 18:45 37.90537 58.52622 2491 ft 157 kts 301°
2026-04-25 18:45 37.91038 58.51442 2473 ft 151 kts 302°
2026-04-25 18:45 37.91547 58.50284 2456 ft 149 kts 302°
2026-04-25 18:45 37.92055 58.49142 2448 ft 149 kts 304°
2026-04-25 18:46 37.92553 58.48022 2448 ft 139 kts 303°
2026-04-25 18:46 37.93013 58.46990 2346 ft 133 kts 303°
2026-04-25 18:46 37.93473 58.45960 2178 ft 132 kts 303°
2026-04-25 18:46 37.93914 58.44970 1989 ft 130 kts 303°
2026-04-25 18:47 37.94360 58.43968 1814 ft 130 kts 302°
2026-04-25 18:47 37.94807 58.42965 1641 ft 131 kts 302°
2026-04-25 18:47 37.95258 58.41952 1469 ft 133 kts 302°
2026-04-25 18:47 37.95713 58.40929 1305 ft 134 kts 301°
2026-04-25 18:48 37.96184 58.39888 1141 ft 137 kts 300°
2026-04-25 18:48 37.96660 58.38830 990 ft 138 kts 299°
2026-04-25 18:48 37.97128 58.37783 830 ft 136 kts 297°
2026-04-25 18:48 37.97592 58.36745 696 ft 131 kts 297°
2026-04-25 18:49 37.97967 58.35889 683 ft 88 kts 300°
2026-04-25 18:49 37.98178 58.35415 678 ft 35 kts 303°
2026-04-25 18:49 37.98329 58.35243 684 ft 26 kts 330°
2026-04-25 18:49 37.98412 58.35182 684 ft 6 kts 330°
2026-04-25 18:50 37.98442 58.35168 684 ft 0 kts 355°
2026-04-25 18:51 37.98448 58.35167 683 ft 3 kts 355°
2026-04-25 18:51 37.98468 58.35167 683 ft 6 kts
2026-04-25 18:51 37.98474 58.35168 683 ft 3 kts
2026-04-25 18:51 37.98510 58.35185 683 ft 6 kts 47°
2026-04-25 18:52 37.98511 58.35241 683 ft 8 kts 125°
2026-04-25 18:52 37.98475 58.35301 681 ft 9 kts 121°
2026-04-25 18:52 37.98439 58.35379 683 ft 11 kts 121°
2026-04-25 18:52 37.98399 58.35468 683 ft 12 kts 118°
2026-04-25 18:53 37.98355 58.35569 682 ft 14 kts 119°
2026-04-25 18:53 37.98306 58.35679 683 ft 15 kts 120°
2026-04-25 18:53 37.98250 58.35800 683 ft 16 kts 120°
2026-04-25 18:53 37.98196 58.35917 682 ft 15 kts 120°
2026-04-25 18:54 37.98092 58.36164 683 ft 13 kts 99°
2026-04-25 18:54 37.98143 58.36257 683 ft 15 kts 27°
2026-04-25 18:54 37.98238 58.36322 683 ft 16 kts 29°
2026-04-25 18:55 37.98338 58.36396 683 ft 17 kts 31°
2026-04-25 18:55 37.98448 58.36476 683 ft 19 kts 29°
2026-04-25 18:55 37.98542 58.36544 683 ft 10 kts 29°
2026-04-25 18:55 37.98556 58.36555 683 ft 2 kts 48°
2026-04-25 18:56 37.98551 58.36576 683 ft 4 kts 125°
2026-04-25 18:56 37.98531 58.36609 680 ft 6 kts 128°
2026-04-25 18:56 37.98497 58.36645 683 ft 7 kts 152°
2026-04-25 18:56 37.98474 58.36661 683 ft 0 kts 152°